Wind_Speed
104 104 102 99 95 91 89 87 84 82 82 81 79 76 75 72 69 68 66 64 63 61 57 55 53 53 53 54 59 62 61 60 60 58 56 55 54 50 47 46 45 44 42 40 38 38 38 38 38 38 40 41 42 43 41 39 38 38 38 39 39 39 39 40 40 41 40 40 40 41 44 45 46 46 46 47 47 47 47 46 47 48 48 47 48 48
108 106 102 98 96 93 91 88 86 85 85 84 81 78 76 74 72 70 68 66 64 61 58 57 55 54 55 53 55 59 58 59 61 60 57 57 56 52 48 46 46 45 43 42 42 41 39 39 39 39 41 42 43 43 41 40 39 40 40 39 39 40 41 41 42 43 43 42 41 42 44 44 44 45 47 48 49 49 48 48 49 50 48 48 49 50
110 106 99 98 97 94 92 91 89 88 86 86 83 80 77 75 74 72 69 66 65 63 60 58 56 56 56 54 53 55 55 57 60 61 58 57 56 54 51 48 47 45 44 45 45 44 42 41 41 42 42 42 43 43 44 43 43 43 42 41 40 41 43 44 45 45 45 45 45 45 45 44 44 45 47 49 50 50 49 49 50 51 51 52 53 54
107 100 96 98 98 95 94 92 91 89 87 85 83 81 78 77 75 73 70 68 66 65 62 60 58 57 57 55 53 54 54 55 57 59 58 57 56 55 54 51 48 47 47 47 46 45 45 44 45 46 45 44 44 46 47 46 44 43 42 41 41 43 45 46 46 46 46 46 47 47 48 47 48 48 49 51 53 53 52 52 53 54 56 56 56 57
104 99 99 101 100 98 97 95 93 91 87 85 84 82 79 79 78 75 73 70 68 66 63 62 59 57 57 56 54 55 54 53 54 56 56 57 57 56 55 53 51 50 50 49 49 48 47 47 48 49 48 46 46 47 47 45 44 44 44 43 42 42 44 45 46 47 47 47 48 49 50 50 51 52 53 55 56 56 56 56 57 58 58 58 58 58
106 104 105 105 104 102 100 97 94 91 89 87 84 82 81 81 80 77 76 73 70 67 64 64 60 56 57 57 56 56 54 53 54 53 54 56 58 57 56 56 56 55 53 52 51 51 51 50 50 50 50 50 48 48 47 46 46 46 46 46 45 45 44 45 47 47 47 48 49 50 51 52 54 55 57 57 57 57 58 58 59 60 61 61 61 60
109 108 108 108 107 105 102 98 95 92 91 88 85 84 85 84 82 80 78 76 71 68 67 66 62 57 56 57 58 58 55 54 55 53 54 56 58 59 58 58 59 58 57 55 54 53 53 53 52 52 53 52 52 51 49 49 49 50 49 49 49 49 48 48 47 48 48 49 49 50 51 53 54 56 57 58 59 59 59 59 59 60 61 62 63 63
112 110 110 110 108 105 102 97 94 93 91 88 86 87 87 86 85 82 81 78 73 71 70 68 64 59 56 58 60 59 57 55 54 54 55 56 57 59 60 61 61 60 59 58 56 55 55 55 55 55 54 54 54 53 52 52 53 53 52 52 52 52 53 52 50 50 50 51 51 51 52 53 54 55 56 57 58 59 60 60 60 60 60 62 63 64
113 111 110 109 107 104 99 95 94 95 93 91 90 91 90 89 88 85 82 80 76 73 71 69 68 62 57 60 62 59 56 56 56 56 57 57 57 57 60 62 63 62 60 59 58 56 57 57 57 57 56 55 55 55 55 56 55 54 55 55 54 54 55 54 53 53 53 53 53 53 53 54 55 56 56 56 58 59 59 60 60 60 60 61 61 63
115 112 111 110 108 104 100 99 99 99 97 95 95 95 95 94 91 88 84 81 78 75 72 71 71 65 58 60 63 57 53 55 57 59 59 59 58 57 58 60 63 63 61 60 60 58 57 58 59 59 58 58 58 58 58 58 57 57 57 56 56 56 56 56 56 56 56 56 55 55 56 56 57 58 58 58 59 60 61 61 62 62 62 62 62 63
118 115 115 115 112 108 106 106 105 104 103 101 100 99 99 97 93 91 87 84 83 78 73 71 72 69 61 59 62 59 55 56 58 60 61 61 59 58 57 57 59 61 61 61 61 60 59 59 60 61 60 60 61 61 60 60 60 60 59 58 59 59 58 58 58 58 59 58 58 57 58 58 59 59 60 61 62 63 64 64 65 65 64 65 65 65
121 119 119 117 114 111 110 109 108 108 107 105 104 102 101 99 96 94 90 87 83 77 74 73 73 73 64 57 60 63 63 63 62 62 62 62 60 58 58 57 57 58 60 60 61 61 61 60 61 62 62 62 62 62 63 63 63 62 61 61 61 61 61 60 60 60 61 61 61 61 60 60 61 62 62 64 65 66 67 67 68 68 68 68 69 69
125 121 119 117 115 113 112 111 111 110 109 108 106 103 102 100 98 95 90 86 81 76 75 75 75 74 67 59 60 64 67 66 65 64 63 62 62 61 59 58 57 57 58 60 61 62 62 62 61 63 64 64 63 63 65 66 65 65 64 64 64 64 64 63 62 63 64 65 65 64 63 63 63 64 65 66 68 69 69 70 70 71 71 72 73 73
127 123 121 120 118 115 114 113 112 110 109 107 103 100 99 98 96 93 90 86 81 78 77 78 79 76 70 65 63 65 68 68 67 67 66 64 64 63 61 60 60 58 57 58 60 62 63 64 63 63 65 65 65 65 66 67 67 67 67 66 66 66 66 65 65 66 67 68 68 68 67 66 66 67 68 69 70 71 72 73 73 74 75 76 77 78
128 125 122 120 118 116 114 112 110 108 107 105 102 100 100 100 99 95 93 89 84 82 83 85 83 76 71 69 65 65 68 70 70 71 69 66 64 63 62 62 62 61 58 57 59 61 63 64 65 65 65 66 67 67 68 68 69 69 69 69 68 69 68 67 68 68 69 71 71 71 71 70 70 70 70 71 72 73 74 75 76 77 78 79 80 81
131 128 123 120 117 115 113 111 109 110 110 108 106 105 104 104 101 99 96 93 90 89 88 87 82 74 71 71 69 67 68 71 73 73 72 70 67 65 63 63 63 63 62 60 59 60 62 64 65 66 67 67 68 68 69 69 70 70 71 71 70 71 70 70 70 70 71 72 73 74 74 74 74 73 74 74 75 76 76 77 78 79 80 81 83 84
132 130 126 123 121 118 115 114 113 113 112 110 108 106 104 102 101 100 98 96 95 93 89 84 79 74 73 72 70 69 69 71 74 74 74 74 71 68 66 64 64 64 64 64 62 61 61 63 65 66 68 68 69 69 70 70 71 71 71 72 72 72 72 72 72 73 73 74 75 75 76 76 76 76 77 78 78 79 79 79 80 81 82 83 84 85
132 131 129 126 123 120 118 117 117 116 115 114 112 108 105 105 105 103 102 100 98 94 88 83 79 77 75 73 72 72 71 72 74 75 75 75 74 72 69 67 65 65 65 66 66 64 64 64 64 65 67 68 69 70 70 71 71 72 72 72 72 72 73 73 74 74 75 76 77 78 78 79 79 79 80 80 81 81 82 82 83 83 84 85 86 87
134 133 131 128 124 121 121 121 120 119 118 117 114 111 109 109 108 106 105 102 98 94 88 83 81 80 77 73 73 74 73 73 75 76 76 75 75 74 72 70 68 67 66 66 66 67 67 67 66 66 66 66 68 68 69 70 71 71 72 72 72 73 73 74 74 75 76 77 77 79 79 80 81 81 81 82 82 83 83 84 85 85 86 87 87 88
134 133 133 130 127 125 125 125 123 120 119 116 114 112 112 111 110 107 105 102 100 96 92 88 85 82 77 75 75 75 74 75 77 78 78 76 74 75 74 73 72 70 69 68 67 67 68 68 68 68 68 67 67 68 68 70 70 71 71 72 72 73 73 74 74 75 76 77 78 79 80 81 81 81 82 83 83 83 83 84 85 86 87 88 88 90
133 134 134 132 130 129 128 127 124 121 118 116 113 112 111 110 109 106 104 103 101 98 95 91 87 82 79 77 76 75 77 78 78 79 81 80 78 76 76 75 74 73 72 71 70 68 68 68 69 69 69 69 69 69 69 69 70 71 72 73 73 74 74 75 75 76 76 77 78 79 80 80 81 82 82 82 83 83 83 84 85 86 87 88 89 91
134 135 135 134 133 130 127 125 123 121 119 117 115 113 111 111 110 108 107 104 101 98 95 92 87 82 79 79 77 77 80 81 80 81 83 84 82 79 77 76 75 75 74 73 72 71 70 69 69 69 70 70 71 70 70 70 70 71 71 72 73 74 75 76 77 77 78 79 79 80 81 82 82 83 84 84 84 84 85 85 86 86 87 88 90 91
134 136 135 134 133 130 126 125 124 123 122 121 120 118 116 115 114 112 109 105 102 99 95 93 90 84 81 80 78 78 80 81 81 82 84 85 84 81 79 77 76 76 76 75 74 73 72 72 71 71 71 71 71 72 72 71 71 71 71 72 73 73 74 75 76 77 78 79 80 80 81 82 83 84 84 85 85 86 86 87 87 87 88 89 90 91
134 135 135 134 133 132 128 125 125 125 125 125 124 121 119 118 114 112 109 106 104 101 97 97 94 86 81 80 79 79 80 81 82 83 84 85 84 84 82 80 79 78 78 77 76 76 75 74 74 74 73 73 73 72 72 72 72 72 72 73 74 74 75 76 76 77 78 78 79 80 80 81 81 82 83 84 85 85 86 87 88 88 88 89 90 91
131 133 135 135 134 134 133 130 128 128 129 128 126 123 121 118 114 112 110 109 106 101 99 99 94 85 82 81 82 83 82 82 83 84 85 85 86 86 86 85 83 81 79 79 78 78 78 77 77 76 75 75 74 74 74 74 74 74 74 75 75 76 76 77 78 79 79 80 81 81 81 81 82 83 83 84 85 86 87 88 89 90 90 91 91 92
127 130 134 135 134 135 134 131 129 127 126 125 123 122 120 117 114 111 110 110 107 101 100 99 93 86 83 83 84 86 86 84 84 86 86 88 90 90 89 88 86 83 81 80 80 80 80 79 79 78 77 77 76 76 76 76 76 77 77 78 78 79 79 80 81 81 82 83 83 83 84 84 84 85 85 86 87 88 89 90 90 91 92 93 93 94
124 127 132 134 133 133 132 129 126 122 120 120 120 119 118 116 115 113 112 111 107 104 104 102 95 89 87 86 87 89 87 83 83 86 88 91 94 94 91 90 89 86 84 83 83 83 82 81 80 79 79 78 78 78 78 79 79 79 80 80 81 82 82 83 84 84 85 85 85 86 86 86 87 87 88 89 90 90 91 92 93 94 94 95 96 97
123 126 130 133 132 131 131 130 128 124 121 119 119 119 119 118 118 118 117 114 110 109 108 103 97 94 91 90 91 92 89 85 85 88 90 94 97 95 93 92 90 88 87 86 86 84 83 82 81 81 81 81 81 81 81 82 82 82 83 83 84 85 85 86 87 87 88 88 88 88 89 89 90 90 91 91 92 93 93 94 95 96 97 97 98 99
123 125 127 129 130 130 130 130 130 128 124 121 120 120 120 120 120 120 118 115 114 115 112 106 103 101 97 94 94 93 91 90 90 90 91 94 96 94 94 94 90 89 89 89 87 85 84 83 83 83 83 83 83 83 83 84 84 85 86 86 87 88 88 88 89 89 90 90 91 91 91 92 92 92 93 93 94 95 95 96 97 98 98 99 99 100
124 125 123 123 127 130 130 130 129 128 126 124 123 122 122 122 122 121 120 119 119 120 116 111 110 108 101 96 95 95 94 94 92 91 90 91 93 95 96 95 92 92 92 90 88 86 86 86 86 85 85 85 85 85 85 85 86 87 88 89 89 90 90 90 90 91 91 92 92 93 93 94 94 94 95 95 96 97 97 98 99 99 100 100 101 102
123 125 121 116 119 126 130 131 130 128 127 126 125 123 123 124 124 124 123 122 122 121 116 111 110 107 101 98 96 96 96 95 93 92 90 90 94 98 99 97 96 95 93 90 88 88 88 89 88 88 88 87 86 86 87 88 89 90 91 92 92 92 93 93 93 93 94 95 95 96 96 96 96 96 96 96 97 98 99 99 100 101 102 102 103 104
123 123 120 114 113 119 127 130 130 129 128 128 127 125 124 124 125 123 121 120 120 117 113 111 110 105 101 98 95 94 96 96 95 95 94 94 97 101 102 101 99 97 93 91 90 89 90 90 90 89 89 88 88 88 89 90 91 93 93 94 94 95 95 96 96 97 97 98 98 99 99 99 99 98 98 98 99 99 100 101 102 102 103 104 105 106
125 122 118 114 113 115 119 124 126 128 130 130 128 125 123 122 122 120 119 118 117 116 113 112 109 104 100 98 97 96 98 99 100 100 99 99 100 103 105 105 102 98 94 92 91 90 91 91 90 90 89 89 89 90 91 93 94 94 95 95 95 96 97 98 99 100 100 100 101 101 101 101 101 101 102 101 102 102 103 103 104 105 106 106 107 108
127 122 115 113 113 112 114 117 121 126 130 130 127 123 121 120 118 118 118 117 117 117 116 113 108 104 102 101 99 99 99 100 101 102 102 100 101 104 107 106 102 97 94 92 90 90 91 91 90 89 89 89 90 92 93 94 95 95 96 96 97 98 99 100 101 102 102 103 103 103 103 103 103 104 104 104 104 105 105 106 107 107 108 109 110 111
128 124 117 113 112 110 111 114 118 122 125 126 124 123 122 122 120 120 121 121 122 121 119 114 107 103 103 101 99 100 100 100 102 102 102 101 101 103 106 105 101 98 95 92 91 92 92 92 91 91 91 92 93 94 95 95 96 97 97 98 99 100 101 102 103 104 105 105 105 105 105 106 106 106 107 107 107 108 108 109 109 110 111 112 113 114
129 125 120 115 112 110 110 111 115 121 123 123 123 124 124 123 122 123 121 119 119 117 114 110 105 102 103 101 99 100 101 101 103 104 104 103 101 101 104 103 101 98 96 95 94 95 94 94 93 94 94 95 96 96 97 97 97 98 99 100 101 102 103 104 105 106 107 107 108 108 108 108 109 109 110 110 110 111 112 112 113 114 114 115 116 118
129 127 122 116 112 111 110 108 111 117 120 122 123 123 121 118 117 117 116 113 113 113 113 109 104 102 101 100 100 102 103 105 106 105 104 102 99 99 101 101 99 98 97 97 97 97 96 95 96 97 97 98 98 98 99 99 99 100 101 102 103 104 105 106 107 108 109 109 109 110 110 111 112 112 113 113 114 114 115 116 117 118 118 119 120 120
128 127 124 120 115 113 111 108 108 113 117 118 117 114 114 114 113 116 118 117 116 117 116 111 106 100 97 97 99 102 105 108 108 105 102 100 98 99 101 100 99 98 98 98 98 97 97 98 99 99 100 100 100 100 101 101 102 102 103 104 105 106 107 108 108 109 109 110 111 111 112 113 114 114 115 116 116 117 118 120 121 121 121 120 120 119
127 126 125 124 122 119 117 113 112 114 114 111 105 104 109 114 116 117 121 119 114 111 108 104 100 96 93 93 97 101 104 107 105 100 98 98 98 101 102 100 100 100 99 98 98 97 98 100 101 101 101 101 102 102 102 103 103 104 105 105 106 107 107 108 109 110 111 111 112 113 113 114 115 116 117 118 120 121 121 122 121 120 119 118 117 117
128 125 124 125 126 126 125 122 121 119 114 107 103 103 109 115 118 120 121 117 105 96 95 95 93 93 94 96 100 104 105 103 98 96 97 99 100 102 101 100 100 100 99 98 97 98 99 101 101 101 102 102 103 103 104 104 104 105 105 106 106 107 107 108 109 111 112 113 114 114 115 116 117 118 120 120 121 121 120 119 118 116 115 114 112 111
131 127 123 123 125 127 128 128 126 123 117 111 109 110 113 117 121 122 120 111 93 80 80 87 88 90 94 99 103 105 104 101 98 97 98 101 102 101 100 100 101 100 99 98 98 98 100 100 100 101 102 102 103 103 104 104 104 105 105 106 106 107 107 109 110 112 114 115 116 116 117 118 118 119 118 118 117 116 115 113 111 110 108 106 105 103
133 132 127 123 122 124 126 127 126 122 118 115 115 118 120 122 122 118 112 103 90 78 79 88 92 92 94 97 100 101 101 102 102 101 101 102 102 101 100 100 100 100 99 99 99 100 101 101 101 101 101 102 103 104 104 104 104 104 105 105 106 107 109 110 111 113 115 116 117 117 117 116 116 115 114 112 110 108 106 104 102 100 99 98 97 96
133 135 133 129 125 124 124 125 125 119 113 111 113 116 119 118 115 111 106 100 95 90 91 97 100 98 95 95 96 96 97 100 102 101 101 102 101 99 98 96 96 97 97 97 98 99 100 101 101 102 102 103 104 105 105 105 104 105 106 106 107 109 109 111 112 113 113 114 114 113 113 112 110 107 104 101 99 96 94 93 92 92 91 90 89 88
133 134 134 132 128 126 124 123 119 112 105 103 105 109 111 110 108 107 105 103 101 99 98 100 102 102 100 99 100 100 101 103 103 102 101 101 100 97 95 94 94 94 94 94 95 96 96 97 98 99 100 102 103 104 104 104 104 105 106 106 107 107 108 108 109 109 108 108 107 106 103 100 96 93 89 87 85 84 83 83 84 84 83 83 82 81
132 134 135 132 128 125 122 118 113 106 100 98 100 104 107 106 105 105 106 105 104 102 100 99 99 101 102 100 98 98 99 99 99 99 98 97 95 93 91 90 90 91 92 94 94 94 94 94 96 97 98 100 101 101 101 101 101 102 103 103 103 103 103 104 104 104 103 100 97 92 87 83 79 77 75 74 74 75 75 76 76 76 76 75 75 74
133 135 136 133 130 126 123 118 112 104 99 99 100 102 103 102 99 99 100 98 96 94 90 87 86 90 94 91 87 86 87 87 88 89 90 91 90 88 87 87 87 86 87 87 88 88 89 91 92 93 94 95 96 97 97 97 97 98 99 99 99 99 99 99 98 96 92 87 81 76 72 70 68 68 68 68 68 69 70 70 70 70 69 68 68 67
135 137 136 134 132 129 124 118 112 104 97 95 96 94 92 90 88 86 85 84 83 82 79 77 78 82 87 86 82 79 79 79 79 80 81 82 82 82 83 85 86 85 84 83 83 85 86 87 88 89 90 91 92 93 93 94 94 94 95 96 95 94 94 92 88 84 78 73 70 67 65 64 64 64 65 65 65 66 66 66 66 66 65 64 63 62
136 136 135 134 132 128 120 113 110 105 98 92 90 86 81 79 79 79 79 78 77 77 78 77 78 79 80 80 78 75 73 72 72 73 74 76 77 79 83 85 86 86 85 85 86 87 87 87 87 87 88 89 90 91 91 90 89 89 89 89 88 86 83 80 77 72 68 66 64 62 61 62 62 62 63 63 63 64 64 64 64 64 63 63 62 62
135 134 133 132 131 128 120 111 107 106 99 91 87 83 78 74 73 74 76 77 77 78 79 80 80 80 79 78 77 75 73 72 70 70 72 75 78 82 84 85 84 84 84 85 86 87 87 86 85 85 86 87 89 89 88 86 85 83 82 82 80 76 74 73 69 65 62 62 62 61 61 62 62 61 61 62 63 64 64 64 65 65 66 65 65 66
134 131 130 130 129 127 122 113 108 106 101 93 87 83 78 73 72 73 76 78 79 79 79 80 82 81 80 77 76 75 74 73 73 73 75 78 80 82 82 81 80 80 81 82 83 83 84 83 83 84 86 87 88 87 86 84 81 79 78 78 76 74 73 72 70 67 65 63 61 61 61 62 62 61 62 63 65 66 66 66 67 68 69 69 70 70
131 128 127 128 128 126 122 117 113 110 106 99 93 86 80 76 75 76 77 79 80 80 79 80 81 81 79 77 76 76 77 78 79 79 79 79 79 79 79 79 80 81 82 82 81 81 81 82 83 84 86 86 86 85 84 82 80 79 78 77 76 75 74 73 72 71 70 66 63 61 60 61 63 63 64 65 67 68 69 69 69 69 70 70 71 72
Wind_Direction
224 225 226 228 229 230 233 234 234 234 235 235 234 233 234 235 235 236 237 238 239 238 238 238 238 240 242 241 242 242 242 243 244 245 246 248 250 251 253 255 256 255 255 255 256 256 254 250 251 254 255 256 257 258 257 258 262 267 269 270 271 273 276 279 280 279 278 278 279 280 281 282 283 283 283 284 286 287 290 293 294 296 296 295 293 293
223 223 225 227 229 229 231 233 233 233 234 236 235 234 235 236 236 237 237 238 239 239 239 240 239 241 242 241 242 242 242 242 243 244 244 246 248 250 252 252 253 254 255 255 255 257 256 251 249 251 252 253 254 255 254 257 262 266 268 270 271 273 277 279 280 280 278 277 277 277 277 279 281 283 284 284 286 288 290 293 294 294 293 292 292 293
223 222 224 227 229 229 231 233 233 233 234 235 236 236 236 237 238 239 238 239 241 240 240 241 241 243 243 241 242 243 242 241 242 243 243 245 247 249 249 249 250 252 252 252 253 255 256 254 252 253 255 255 255 255 255 259 264 266 267 269 271 274 276 277 279 279 279 278 277 277 276 277 278 280 280 281 282 284 287 289 290 290 291 292 293 294
223 223 225 228 229 229 230 232 233 234 234 235 237 237 238 239 239 240 240 240 242 242 241 242 243 244 245 244 243 243 243 242 242 242 242 243 244 245 246 247 247 248 249 249 250 252 254 255 256 258 259 258 256 256 256 259 263 265 267 269 271 273 274 275 275 276 278 278 279 279 279 278 278 278 280 281 282 283 285 287 288 289 291 292 293 294
223 224 227 228 228 228 229 231 232 234 234 235 237 238 239 240 241 241 241 241 242 243 243 243 244 246 248 247 245 244 243 244 243 242 241 241 241 243 245 246 246 246 247 249 250 251 253 254 256 259 261 261 259 258 259 261 264 266 268 269 272 273 274 274 274 274 275 277 278 280 280 280 280 280 280 281 283 285 286 287 288 290 291 292 292 293
223 224 226 227 226 226 227 229 231 233 234 235 236 238 239 241 241 242 243 242 242 244 244 245 245 246 249 250 250 247 244 245 245 243 242 241 240 241 242 244 245 245 246 248 250 251 252 253 254 257 260 261 262 262 263 265 267 267 268 270 272 274 276 275 273 273 274 275 277 279 280 280 280 280 280 281 283 285 286 287 288 289 290 291 291 292
222 224 225 226 225 225 226 227 229 231 233 234 235 237 238 239 240 241 242 242 242 244 245 245 245 245 248 251 252 251 247 246 247 246 244 242 240 240 241 242 244 245 246 247 249 251 252 253 254 255 257 260 262 263 265 266 267 268 269 271 273 274 276 276 274 274 275 276 278 279 280 280 279 279 280 281 283 284 285 286 286 287 289 290 291 291
221 223 225 226 226 226 226 227 229 231 233 234 236 237 237 239 239 239 240 242 241 243 244 245 245 245 247 250 251 252 251 250 249 249 247 245 242 241 240 241 243 244 246 248 249 250 252 253 254 255 257 258 260 262 263 263 265 267 269 270 272 273 275 277 277 276 276 277 279 280 280 280 280 280 281 282 282 283 284 285 285 286 287 288 289 290
221 223 225 227 227 227 226 228 230 232 233 234 235 236 237 237 238 238 238 240 241 241 244 245 245 244 245 249 251 252 254 254 253 251 250 249 247 244 242 242 243 244 246 248 248 249 250 252 253 254 255 257 259 260 260 261 263 266 267 267 270 272 273 275 277 277 277 278 279 280 280 280 280 281 282 283 283 283 283 284 284 285 286 286 287 287
220 222 225 226 228 227 226 227 229 231 232 233 235 236 236 236 237 237 237 239 240 241 242 245 246 245 243 248 252 252 253 254 254 253 252 251 250 247 245 244 245 245 245 247 248 248 248 250 251 253 254 256 257 257 258 260 262 264 265 266 267 269 271 273 274 275 277 278 279 279 278 279 280 281 282 283 283 283 283 283 284 284 285 286 286 286
219 220 222 225 226 225 225 226 227 229 230 231 232 234 236 236 236 237 236 237 238 239 241 244 246 246 243 247 254 255 252 251 253 253 253 252 252 251 250 248 247 246 246 246 247 248 248 248 251 253 254 255 255 256 258 260 261 262 264 265 266 268 270 271 272 274 275 276 277 277 277 277 278 279 281 281 282 282 283 283 283 284 285 285 286 286
220 219 221 223 224 225 225 226 227 227 229 230 231 233 235 235 236 236 236 236 238 239 242 243 246 247 245 245 251 254 252 250 251 252 253 254 254 253 253 252 250 248 247 246 247 248 248 248 250 252 253 254 255 256 257 258 259 261 262 263 265 267 269 270 272 272 273 274 274 275 275 276 277 278 278 279 279 280 281 282 283 284 284 285 286 286
221 219 220 222 224 225 226 227 227 228 229 230 230 232 234 236 236 237 237 237 238 240 242 244 245 246 246 243 245 250 252 252 252 253 253 254 254 254 254 255 254 252 250 249 247 248 249 249 249 251 253 254 255 256 256 257 258 260 261 262 264 266 268 270 271 271 272 272 273 274 275 275 276 277 277 278 278 279 280 281 282 283 284 284 285 285
222 220 220 221 223 225 226 227 228 229 230 232 232 234 237 238 239 239 239 239 239 241 242 244 244 245 245 244 243 247 253 255 255 255 254 254 255 255 255 256 255 254 253 253 251 250 250 251 250 251 252 254 254 255 255 256 258 259 260 262 263 265 267 269 270 271 271 271 272 273 274 275 276 276 277 278 278 279 280 281 282 282 283 283 283 284
224 222 221 222 223 225 226 228 230 231 233 234 234 234 236 237 238 239 240 239 239 239 240 241 241 242 245 246 245 247 253 257 257 257 256 256 256 256 257 257 257 257 256 255 254 253 252 252 252 252 252 253 254 255 255 255 257 258 260 261 263 265 266 267 268 269 270 270 271 273 274 275 276 277 277 278 278 279 280 281 281 282 282 283 283 283
223 223 222 222 224 226 227 229 230 232 233 233 233 233 234 235 236 237 238 238 238 237 237 239 241 242 245 247 248 248 251 256 258 259 260 259 258 258 258 258 259 260 259 257 255 255 256 255 254 254 254 254 254 255 255 256 256 258 260 261 263 264 265 267 267 268 269 270 271 272 273 274 275 277 278 278 279 279 279 280 281 281 282 282 283 283
223 223 222 222 223 224 226 228 229 231 233 233 233 234 235 236 238 238 239 238 238 238 238 239 241 242 244 246 248 249 250 253 257 259 261 261 261 260 259 259 260 261 262 260 258 256 256 257 257 257 257 256 256 256 256 257 258 259 260 261 263 264 265 266 267 268 269 269 270 271 272 273 275 276 277 278 279 279 280 280 280 281 281 282 282 283
223 224 223 223 223 223 225 227 228 230 231 232 232 233 234 235 237 238 239 239 239 239 239 240 241 242 243 245 247 248 249 250 253 256 259 262 263 262 261 260 260 260 262 263 262 260 258 257 258 258 259 259 259 259 260 260 260 261 261 262 263 264 265 266 267 268 268 269 269 270 271 272 274 275 277 277 278 279 280 280 281 281 281 282 282 283
224 224 224 223 223 223 225 226 227 228 230 231 232 232 232 234 235 236 238 239 240 241 240 240 241 241 242 243 245 247 248 249 251 254 256 259 261 263 263 262 261 261 261 262 263 263 262 261 260 259 259 260 260 261 262 262 263 264 264 264 265 265 266 266 267 267 268 268 269 270 270 271 273 274 275 276 277 278 279 280 280 281 282 282 283 284
225 224 225 224 223 223 224 226 226 227 229 231 232 233 233 233 234 235 237 238 239 239 239 238 239 240 241 242 244 246 248 249 251 253 255 257 259 261 263 263 263 263 262 262 262 263 264 265 264 264 263 262 262 262 262 263 263 264 265 266 266 267 267 268 268 268 269 269 269 270 271 271 273 274 275 276 277 277 278 279 280 281 281 282 283 284
226 225 225 225 224 224 224 225 226 227 230 231 233 234 235 235 236 237 238 239 239 240 239 239 239 240 241 242 244 246 248 249 251 253 255 256 257 258 260 262 263 263 263 263 263 263 264 265 266 267 267 266 265 265 264 264 264 265 265 266 267 267 268 269 269 269 270 270 271 271 272 272 273 274 275 276 277 277 278 279 279 280 281 282 283 284
226 226 226 226 225 225 225 226 227 228 229 231 233 234 235 236 237 237 237 238 239 240 241 241 241 241 242 244 244 246 247 249 250 251 253 254 255 256 257 259 261 262 263 264 264 264 264 264 265 266 267 267 268 268 267 267 267 267 267 268 268 269 269 269 269 270 270 271 271 272 273 273 274 275 276 277 277 278 279 279 280 280 281 281 282 283
226 226 226 226 226 226 225 227 228 228 229 230 231 232 234 235 235 235 236 236 237 238 239 240 239 238 239 241 242 243 245 248 249 250 252 254 255 256 257 258 259 261 262 263 264 265 265 266 266 266 266 267 268 269 269 270 270 270 270 270 270 270 271 271 271 271 272 272 273 273 274 275 275 276 277 277 278 279 279 279 280 280 280 281 281 282
226 227 227 227 227 226 226 226 228 229 229 230 231 232 233 235 236 237 237 236 237 237 237 238 237 236 236 238 240 241 244 247 249 251 252 254 255 257 258 259 259 260 260 261 263 264 265 266 266 266 267 267 268 269 270 270 270 271 271 271 271 272 273 273 274 274 274 274 274 275 275 276 276 277 278 278 279 280 280 280 281 281 282 282 282 283
226 227 227 227 227 227 226 225 226 228 229 230 231 232 233 235 236 238 238 238 237 237 238 239 239 238 238 239 241 243 245 247 250 252 253 254 255 256 257 257 258 259 259 260 261 262 263 264 265 266 267 268 269 270 270 270 271 271 271 271 272 273 274 275 275 275 275 275 276 276 276 277 277 278 278 279 279 280 280 281 282 282 283 283 284 284
226 228 229 228 228 228 227 227 227 228 230 231 232 233 234 236 237 238 240 240 239 238 239 240 240 239 240 241 243 245 246 248 250 252 253 254 255 255 255 256 257 258 259 260 261 261 262 263 264 266 267 268 269 270 270 271 271 272 273 274 274 275 275 275 275 275 275 275 275 276 276 277 277 278 278 279 279 280 280 281 282 282 283 284 284 285
226 228 229 229 229 229 229 229 229 230 232 233 233 234 235 236 238 239 240 241 241 240 240 240 239 239 239 240 241 244 245 246 248 250 251 253 254 255 256 256 257 258 259 260 261 261 262 263 264 266 267 268 269 270 270 271 272 274 275 275 276 275 275 275 275 275 275 275 275 276 276 277 277 278 279 279 280 280 281 281 282 282 283 283 284 284
225 228 230 230 230 230 230 230 229 229 230 232 233 233 234 235 236 237 239 240 241 241 241 241 241 240 240 241 242 243 244 244 244 246 248 251 253 254 256 257 257 259 259 260 261 262 263 264 265 266 267 267 268 269 271 272 273 274 274 274 274 274 274 275 275 275 275 276 276 277 277 278 278 279 279 280 280 281 281 281 282 282 283 283 284 284
224 228 229 231 230 230 230 230 230 229 230 231 232 232 232 233 234 235 236 237 238 239 240 239 239 239 238 239 240 241 241 241 242 244 247 251 253 255 256 257 258 259 260 260 261 262 263 264 265 266 267 268 269 270 272 272 273 273 273 273 273 274 274 274 275 275 276 276 277 278 279 279 280 280 280 281 281 281 282 282 282 282 283 283 284 285
224 227 229 231 232 231 230 231 231 231 231 231 232 233 232 233 233 234 234 235 236 237 237 237 238 238 237 238 239 240 241 242 243 245 247 251 255 256 257 258 258 258 259 259 261 262 263 264 265 266 267 269 270 271 272 272 272 272 273 273 273 274 274 274 275 275 276 277 278 278 279 280 280 280 281 281 281 282 282 282 283 283 284 285 285 286
223 227 228 230 233 233 232 231 231 231 231 232 233 234 234 234 234 234 235 236 237 238 239 239 240 241 241 241 242 243 243 244 244 246 247 250 253 255 256 257 256 256 257 259 261 262 264 265 266 267 268 269 270 271 271 271 272 272 272 273 273 274 275 275 276 276 277 277 278 278 279 280 280 281 281 281 282 282 282 283 284 284 285 286 286 287
222 226 227 228 232 234 234 232 232 232 232 233 233 233 234 235 235 236 236 238 239 240 241 241 242 242 242 242 241 242 243 244 244 245 246 247 249 252 254 254 255 256 257 259 260 262 264 266 267 268 269 270 271 271 271 272 272 272 273 274 274 275 276 276 277 277 278 278 279 279 280 281 281 282 282 282 282 283 283 284 284 285 286 287 288 288
221 224 226 228 231 234 235 235 234 233 233 234 234 234 235 236 237 238 238 239 240 240 241 241 241 241 241 240 240 240 242 243 244 244 245 246 248 251 253 254 256 257 258 260 262 263 265 266 268 269 269 270 270 271 271 272 272 273 274 275 276 276 277 277 278 278 279 279 280 281 281 282 282 283 283 283 284 284 285 285 286 286 287 288 288 288
220 223 225 227 230 233 235 236 235 235 234 234 235 236 237 237 238 238 238 239 239 239 240 240 240 240 240 241 241 242 243 244 246 246 247 248 250 252 254 256 257 258 260 261 262 264 265 266 266 267 267 267 268 269 270 271 272 273 274 275 276 277 277 278 278 279 280 280 281 282 282 283 283 283 284 284 285 285 285 286 286 287 287 288 288 288
220 222 224 225 228 231 233 234 235 235 235 235 235 236 237 237 237 237 237 237 238 238 239 239 239 240 241 241 242 243 243 244 245 247 248 249 250 252 255 257 258 259 259 260 261 262 262 263 263 263 264 265 266 268 269 270 272 273 274 275 275 276 277 278 278 279 280 281 282 282 283 283 284 284 284 285 285 286 286 286 287 287 287 288 288 288
220 221 223 224 227 229 231 232 234 235 235 234 234 235 236 237 238 238 238 239 240 241 242 242 241 241 242 242 242 243 244 244 246 248 249 250 251 252 254 256 257 257 258 259 259 260 260 261 262 263 264 265 266 268 269 270 271 272 273 274 275 275 276 277 278 279 280 281 282 283 283 284 284 284 285 285 286 286 287 287 288 288 288 289 289 289
220 221 222 223 225 228 230 232 233 235 235 234 235 236 237 238 240 241 241 240 241 241 241 241 240 240 241 242 242 243 244 245 247 249 250 250 251 251 252 253 254 256 257 258 259 259 260 261 262 263 264 265 266 267 268 269 270 271 272 273 274 275 276 277 278 279 280 281 282 283 283 284 284 285 286 286 287 288 288 289 289 290 290 290 290 290
220 221 222 223 224 226 229 230 232 234 234 235 236 237 239 239 240 242 242 240 239 240 241 241 240 240 241 241 242 243 244 246 248 249 250 250 250 250 250 251 253 254 255 257 258 260 261 261 262 263 264 265 266 267 268 269 270 271 272 273 274 275 276 277 279 280 280 281 282 283 284 284 285 286 287 287 288 289 289 290 290 291 291 291 291 291
219 220 222 223 224 225 227 229 231 233 234 234 235 237 239 240 240 241 242 241 241 242 244 244 243 243 243 243 244 244 245 247 248 249 250 250 249 249 250 251 253 254 255 256 258 259 260 261 262 263 264 265 266 267 268 269 270 271 272 274 275 276 277 278 279 280 281 281 282 283 284 285 286 287 288 289 289 290 290 291 291 291 292 292 291 291
219 220 222 223 225 226 227 229 231 232 233 232 233 235 238 240 240 240 241 242 243 244 245 246 245 244 243 243 244 245 246 247 247 247 248 249 249 249 250 252 253 254 255 256 257 258 259 260 262 263 264 265 266 268 269 269 270 272 273 274 275 276 277 278 279 280 281 282 283 284 285 286 287 287 288 289 289 290 290 291 291 291 291 291 290 289
219 219 221 223 226 228 229 230 232 233 233 232 232 234 237 239 241 241 242 243 243 243 244 246 246 245 245 244 245 246 246 246 245 244 246 249 250 251 252 252 253 254 255 256 257 258 259 260 262 263 264 265 266 267 268 269 271 272 273 274 275 276 277 278 279 280 281 282 283 284 285 286 287 287 288 289 289 290 290 290 290 290 289 289 288 288
219 220 221 223 226 228 230 232 233 234 235 235 235 236 238 240 242 244 245 246 244 243 246 249 250 250 250 250 249 249 248 248 246 246 248 251 253 254 254 254 255 255 256 257 257 258 260 260 262 263 264 265 266 267 269 270 271 272 273 274 275 276 277 278 279 280 281 282 283 284 285 286 286 287 288 289 289 289 289 289 289 288 287 287 287 287
220 220 221 223 226 228 230 232 233 234 235 237 238 239 241 243 245 246 247 246 246 246 249 251 252 253 254 254 254 254 253 253 252 251 251 253 255 256 256 257 257 257 257 258 258 259 260 261 262 263 264 265 266 267 269 270 271 272 273 274 275 276 277 278 279 280 281 282 283 285 286 286 287 288 288 288 288 288 288 287 287 286 286 286 287 288
221 221 222 224 226 228 231 233 234 234 235 237 239 240 242 243 244 244 245 245 246 247 249 251 254 255 256 257 257 257 257 257 257 257 256 257 257 258 259 258 258 258 258 258 258 259 260 261 262 263 264 265 266 267 268 270 271 272 273 274 275 277 278 279 279 281 282 283 285 286 287 288 288 289 288 288 288 288 287 287 287 287 288 289 290 291
221 222 223 224 225 228 230 232 234 234 234 236 238 240 241 241 242 243 244 245 247 249 250 252 254 255 256 256 256 257 257 258 259 260 260 260 260 260 260 260 259 259 259 259 260 261 262 263 263 264 265 265 267 268 269 270 271 271 273 274 275 276 277 279 281 282 284 285 287 288 289 290 290 290 290 290 289 289 289 289 289 290 291 292 293 295
222 222 223 223 224 227 229 231 233 234 235 237 239 240 241 242 243 244 245 246 247 249 250 250 251 251 252 252 252 254 255 256 256 258 259 260 261 260 260 260 260 260 261 261 262 262 263 263 263 264 265 266 267 268 269 270 270 271 272 273 274 275 277 280 282 284 285 287 289 291 293 293 293 292 292 292 292 292 292 292 293 293 294 295 296 298
222 223 223 224 224 226 228 230 233 234 235 237 239 241 243 244 244 245 246 247 246 246 246 246 246 247 249 250 250 252 253 254 255 256 258 261 262 263 263 262 261 261 261 262 262 262 261 261 262 263 265 266 267 268 269 270 271 272 274 275 276 277 278 280 282 284 287 290 293 295 296 296 295 295 295 295 295 294 294 294 294 294 295 296 297 297
223 224 224 224 225 226 228 229 232 232 232 235 239 240 243 245 244 243 244 244 243 243 242 242 241 242 245 248 249 251 253 256 258 259 259 262 265 267 268 269 268 267 266 265 264 264 265 265 267 268 268 269 270 271 272 273 275 277 278 279 280 280 280 281 283 287 292 297 298 297 296 295 295 295 295 295 295 295 295 295 295 294 293 294 295 295
224 224 225 225 225 226 226 227 230 232 231 233 237 239 239 241 240 238 239 241 240 240 240 240 240 241 243 246 249 251 254 257 260 263 265 267 268 269 270 272 273 274 274 273 272 272 273 273 273 274 274 275 276 277 278 280 281 282 283 284 284 284 284 285 286 289 295 300 301 298 295 293 293 294 294 295 295 295 295 295 294 293 293 293 293 294
225 225 225 225 225 226 226 227 229 231 231 232 234 234 234 235 235 233 234 237 238 238 238 239 240 242 244 247 251 255 257 260 262 264 266 268 269 270 272 273 275 276 277 277 277 278 278 278 278 279 280 281 282 283 284 285 286 286 287 287 288 289 290 291 291 293 296 299 299 297 293 291 290 291 291 292 292 292 292 292 292 292 292 292 292 293
226 226 226 226 226 226 227 227 229 231 231 231 232 230 227 228 229 230 231 233 235 236 237 238 241 243 246 248 251 254 257 259 261 262 264 266 268 270 272 274 274 275 276 277 277 278 280 281 283 284 284 285 286 286 287 288 289 289 289 289 290 291 293 294 294 296 296 297 297 295 291 289 289 289 289 289 289 288 288 289 290 291 292 292 291 291
Height
10699 10702 10709 10721 10732 10740 10745 10751 10758 10762 10763 10765 10771 10776 10780 10785 10789 10792 10796 10799 10803 10810 10815 10819 10823 10824 10826 10830 10833 10838 10845 10849 10850 10853 10854 10855 10857 10861 10863 10865 10866 10868 10871 10874 10874 10874 10875 10877 10878 10880 10882 10883 10884 10885 10886 10887 10887 10888 10888 10889 10889 10889 10888 10888 10889 10888 10888 10888 10888 10888 10887 10886 10885 10884 10883 10882 10882 10881 10880 10879 10879 10879 10879 10877 10875 10873
10684 10690 10706 10719 10726 10731 10737 10742 10748 10752 10754 10757 10764 10770 10775 10779 10783 10785 10790 10795 10798 10806 10811 10814 10818 10819 10820 10825 10828 10833 10840 10843 10843 10846 10849 10850 10853 10856 10859 10860 10861 10864 10867 10868 10869 10869 10871 10873 10874 10875 10877 10878 10879 10881 10882 10882 10882 10883 10884 10885 10886 10885 10884 10885 10885 10884 10884 10884 10884 10883 10882 10882 10881 10881 10879 10878 10877 10876 10876 10876 10874 10873 10873 10872 10870 10868
10674 10690 10710 10716 10717 10725 10731 10735 10739 10744 10748 10752 10758 10765 10771 10775 10777 10781 10787 10792 10795 10801 10806 10809 10813 10814 10815 10820 10825 10828 10833 10835 10836 10840 10844 10846 10849 10852 10853 10855 10857 10859 10861 10862 10863 10865 10866 10868 10870 10870 10871 10874 10875 10876 10876 10877 10878 10879 10880 10881 10882 10881 10880 10880 10880 10880 10880 10880 10879 10878 10878 10877 10877 10876 10875 10874 10873 10872 10872 10872 10871 10869 10867 10866 10865 10863
10678 10703 10715 10710 10712 10721 10725 10729 10732 10737 10745 10750 10755 10761 10768 10771 10773 10777 10783 10787 10789 10794 10800 10804 10808 10810 10810 10816 10821 10823 10826 10829 10832 10836 10839 10841 10844 10845 10846 10849 10853 10854 10854 10856 10858 10860 10862 10863 10865 10865 10867 10869 10870 10870 10871 10873 10875 10875 10876 10877 10878 10877 10876 10876 10876 10876 10876 10876 10875 10874 10873 10873 10872 10871 10871 10869 10868 10868 10868 10867 10865 10864 10862 10861 10859 10858
10684 10701 10699 10695 10704 10711 10714 10720 10725 10732 10741 10746 10750 10756 10762 10764 10767 10771 10776 10780 10783 10788 10794 10798 10803 10807 10807 10811 10815 10817 10821 10824 10826 10830 10833 10836 10837 10839 10841 10844 10846 10847 10848 10850 10852 10854 10857 10859 10859 10860 10862 10864 10865 10866 10867 10870 10871 10871 10871 10872 10872 10872 10872 10871 10871 10871 10872 10871 10871 10870 10869 10869 10867 10866 10865 10864 10863 10863 10863 10861 10860 10858 10856 10855 10854 10853
10678 10682 10680 10684 10691 10695 10702 10711 10719 10727 10734 10738 10745 10751 10754 10755 10759 10764 10768 10773 10778 10783 10789 10791 10798 10804 10803 10805 10809 10810 10816 10819 10820 10825 10828 10829 10831 10834 10836 10837 10838 10840 10843 10845 10847 10849 10851 10853 10855 10855 10856 10858 10860 10861 10863 10865 10866 10865 10866 10866 10867 10867 10867 10867 10866 10866 10867 10867 10866 10866 10864 10864 10863 10861 10859 10858 10858 10858 10857 10856 10855 10852 10851 10849 10848 10847
10663 10668 10673 10675 10678 10686 10695 10704 10713 10720 10724 10731 10740 10742 10742 10745 10750 10757 10760 10765 10772 10778 10781 10784 10792 10799 10800 10800 10801 10803 10810 10813 10814 10819 10821 10822 10825 10827 10829 10830 10831 10834 10837 10840 10842 10844 10845 10847 10850 10850 10851 10853 10854 10856 10859 10860 10859 10859 10860 10861 10861 10861 10861 10862 10862 10861 10861 10861 10861 10861 10859 10858 10857 10855 10854 10853 10853 10852 10851 10851 10849 10848 10846 10844 10842 10841
10655 10662 10664 10665 10671 10682 10692 10704 10714 10716 10720 10728 10732 10730 10732 10737 10741 10748 10752 10757 10766 10771 10772 10778 10785 10793 10797 10794 10793 10797 10803 10807 10810 10812 10813 10815 10818 10821 10822 10824 10826 10828 10831 10835 10838 10840 10840 10841 10844 10845 10846 10848 10849 10851 10853 10853 10853 10854 10855 10856 10856 10856 10855 10855 10857 10857 10856 10856 10856 10855 10854 10852 10851 10850 10849 10849 10848 10846 10845 10844 10843 10842 10841 10838 10837 10835
10653 10656 10660 10665 10671 10681 10695 10707 10708 10707 10713 10720 10719 10718 10723 10727 10730 10738 10745 10750 10759 10764 10768 10773 10777 10786 10794 10788 10785 10793 10799 10802 10803 10803 10805 10808 10810 10814 10816 10817 10819 10822 10826 10829 10832 10835 10835 10836 10837 10839 10841 10842 10844 10845 10846 10846 10847 10849 10849 10850 10850 10850 10849 10850 10850 10851 10850 10850 10850 10850 10848 10846 10845 10844 10843 10843 10842 10840 10839 10838 10836 10836 10835 10833 10832 10829
10639 10648 10657 10659 10662 10677 10690 10693 10693 10696 10703 10708 10707 10708 10711 10715 10721 10729 10738 10746 10751 10757 10764 10768 10769 10779 10790 10784 10779 10789 10796 10794 10794 10795 10797 10799 10802 10807 10810 10812 10813 10817 10821 10823 10824 10828 10830 10831 10831 10832 10835 10837 10838 10839 10839 10840 10841 10842 10842 10843 10844 10844 10844 10844 10844 10844 10844 10845 10845 10844 10843 10841 10839 10839 10838 10837 10835 10833 10833 10832 10830 10829 10828 10827 10825 10823
10624 10638 10640 10638 10647 10664 10670 10670 10676 10681 10685 10690 10693 10695 10699 10706 10715 10722 10731 10737 10740 10750 10761 10764 10764 10770 10783 10784 10778 10782 10787 10785 10785 10788 10789 10791 10795 10800 10803 10806 10809 10811 10815 10817 10818 10821 10824 10826 10826 10827 10830 10831 10831 10832 10834 10835 10835 10835 10836 10837 10837 10837 10838 10838 10839 10839 10838 10838 10839 10838 10837 10836 10834 10834 10833 10831 10828 10826 10826 10825 10823 10822 10821 10819 10818 10816
10614 10624 10622 10629 10641 10651 10654 10658 10664 10667 10671 10677 10682 10687 10690 10697 10705 10712 10721 10728 10736 10751 10758 10759 10759 10761 10777 10787 10777 10771 10773 10775 10777 10779 10782 10786 10791 10794 10796 10800 10803 10806 10808 10811 10813 10814 10817 10820 10821 10822 10823 10824 10825 10827 10828 10828 10828 10829 10830 10831 10831 10830 10830 10832 10833 10833 10832 10831 10831 10831 10831 10830 10829 10828 10827 10825 10823 10821 10819 10818 10816 10816 10814 10812 10810 10809
10601 10613 10621 10631 10636 10640 10647 10650 10653 10658 10663 10667 10674 10682 10686 10692 10700 10708 10719 10728 10739 10750 10752 10753 10754 10756 10771 10781 10772 10762 10761 10766 10772 10773 10776 10781 10784 10788 10791 10793 10797 10800 10803 10805 10807 10809 10811 10814 10816 10816 10816 10817 10820 10821 10821 10821 10823 10823 10824 10825 10825 10824 10824 10825 10826 10826 10825 10824 10823 10823 10824 10824 10823 10822 10821 10819 10817 10815 10814 10812 10811 10810 10808 10805 10803 10801
10590 10602 10610 10615 10621 10630 10638 10640 10645 10654 10659 10667 10679 10689 10692 10696 10701 10709 10718 10726 10737 10745 10745 10744 10744 10750 10763 10768 10766 10762 10755 10758 10765 10765 10768 10774 10778 10783 10786 10788 10790 10793 10797 10800 10802 10803 10805 10807 10809 10810 10810 10811 10813 10815 10815 10815 10816 10816 10817 10818 10818 10818 10818 10819 10819 10819 10818 10817 10816 10816 10816 10816 10816 10815 10814 10813 10811 10808 10807 10806 10805 10804 10801 10799 10796 10793
10584 10593 10602 10610 10619 10627 10634 10642 10653 10659 10662 10668 10679 10684 10685 10686 10692 10701 10708 10716 10726 10730 10729 10727 10733 10747 10757 10758 10761 10762 10756 10752 10753 10756 10761 10767 10772 10777 10781 10783 10783 10787 10792 10795 10796 10797 10799 10800 10802 10804 10804 10804 10805 10807 10808 10809 10809 10809 10810 10811 10812 10811 10812 10813 10813 10812 10811 10810 10809 10809 10809 10808 10808 10807 10807 10805 10804 10802 10801 10799 10798 10796 10794 10791 10788 10785
10572 10580 10597 10611 10619 10626 10634 10643 10649 10648 10648 10656 10665 10667 10669 10674 10681 10689 10695 10703 10709 10711 10714 10720 10733 10749 10753 10752 10756 10759 10756 10749 10743 10747 10754 10758 10764 10770 10775 10777 10778 10781 10784 10787 10790 10791 10792 10794 10795 10797 10797 10798 10798 10799 10800 10801 10802 10803 10803 10804 10805 10804 10805 10806 10806 10805 10805 10804 10803 10802 10801 10800 10800 10799 10798 10797 10796 10794 10793 10792 10790 10788 10786 10784 10781 10778
10563 10571 10587 10598 10604 10614 10624 10630 10633 10634 10640 10649 10654 10659 10668 10675 10678 10682 10687 10693 10695 10700 10712 10722 10734 10745 10746 10746 10750 10751 10752 10747 10740 10741 10743 10748 10755 10761 10767 10771 10773 10775 10776 10778 10783 10785 10786 10786 10787 10789 10790 10791 10792 10792 10793 10794 10795 10796 10797 10797 10798 10798 10798 10798 10799 10799 10799 10798 10797 10796 10794 10793 10792 10792 10791 10789 10787 10786 10785 10784 10782 10780 10778 10776 10773 10771
10560 10567 10578 10587 10596 10607 10613 10614 10617 10621 10626 10631 10637 10650 10662 10663 10664 10669 10675 10680 10686 10696 10711 10722 10730 10736 10737 10742 10744 10742 10744 10742 10738 10737 10736 10739 10746 10750 10757 10763 10766 10768 10768 10770 10773 10776 10779 10780 10780 10782 10783 10784 10785 10785 10786 10787 10788 10789 10789 10790 10791 10791 10791 10791 10791 10792 10791 10791 10790 10789 10788 10786 10785 10784 10783 10781 10780 10778 10777 10775 10773 10771 10770 10767 10765 10763
10550 10556 10564 10576 10589 10598 10599 10599 10603 10607 10611 10618 10628 10641 10645 10644 10649 10657 10662 10672 10683 10693 10707 10716 10721 10724 10731 10738 10736 10733 10735 10735 10734 10734 10732 10735 10739 10741 10746 10752 10756 10760 10762 10763 10764 10766 10769 10771 10773 10775 10776 10778 10778 10779 10780 10780 10780 10781 10781 10783 10783 10783 10784 10784 10784 10784 10783 10783 10782 10781 10780 10779 10778 10777 10775 10774 10773 10772 10770 10767 10765 10763 10761 10759 10757 10754
10540 10546 10553 10567 10579 10584 10583 10583 10590 10599 10606 10613 10622 10628 10633 10636 10642 10649 10657 10667 10675 10682 10694 10703 10708 10715 10726 10730 10727 10727 10729 10727 10728 10730 10729 10731 10733 10735 10738 10741 10746 10751 10753 10756 10757 10758 10760 10762 10764 10766 10768 10770 10771 10772 10773 10773 10773 10774 10774 10775 10775 10775 10776 10775 10775 10775 10774 10774 10773 10772 10771 10770 10770 10769 10768 10766 10765 10764 10763 10760 10759 10756 10754 10752 10749 10746
10529 10536 10544 10556 10564 10566 10569 10573 10586 10598 10602 10609 10617 10623 10630 10635 10640 10649 10656 10661 10666 10675 10686 10695 10703 10714 10721 10722 10723 10724 10720 10717 10722 10726 10723 10724 10726 10729 10732 10734 10737 10741 10743 10747 10749 10751 10753 10754 10755 10757 10759 10761 10762 10764 10765 10765 10766 10766 10766 10767 10767 10767 10767 10767 10767 10766 10765 10765 10764 10764 10762 10761 10761 10760 10759 10758 10757 10756 10754 10753 10752 10750 10747 10745 10742 10738
10517 10525 10534 10543 10548 10557 10568 10578 10588 10594 10595 10603 10610 10615 10622 10626 10631 10638 10643 10650 10661 10671 10681 10689 10700 10713 10716 10715 10718 10717 10709 10709 10715 10718 10716 10715 10717 10721 10726 10728 10731 10733 10735 10738 10740 10743 10745 10746 10747 10749 10750 10751 10753 10754 10756 10757 10758 10758 10759 10759 10759 10759 10758 10758 10758 10758 10757 10756 10755 10755 10754 10753 10752 10751 10750 10749 10747 10746 10745 10744 10743 10741 10739 10737 10734 10731
10507 10516 10523 10531 10540 10554 10567 10573 10576 10580 10587 10592 10593 10598 10604 10604 10611 10619 10628 10643 10652 10659 10670 10676 10686 10702 10706 10705 10708 10706 10701 10702 10706 10709 10709 10708 10710 10714 10719 10723 10725 10727 10729 10730 10732 10733 10735 10737 10739 10740 10741 10742 10744 10745 10747 10748 10749 10750 10751 10751 10751 10750 10749 10749 10749 10748 10748 10747 10747 10746 10745 10744 10743 10741 10740 10739 10737 10736 10735 10733 10732 10731 10729 10727 10725 10722
10494 10503 10511 10520 10532 10543 10553 10561 10565 10570 10575 10575 10578 10588 10592 10596 10607 10616 10623 10634 10638 10647 10660 10660 10671 10693 10699 10697 10699 10698 10696 10696 10697 10701 10703 10703 10705 10708 10711 10715 10717 10720 10722 10723 10725 10726 10727 10728 10729 10731 10732 10734 10735 10737 10738 10739 10740 10740 10741 10741 10740 10740 10740 10740 10740 10739 10738 10738 10737 10736 10735 10734 10733 10732 10731 10729 10728 10726 10724 10722 10721 10720 10718 10717 10714 10712
10485 10493 10500 10509 10519 10525 10532 10541 10547 10551 10554 10561 10572 10582 10585 10594 10603 10607 10615 10622 10629 10646 10655 10653 10669 10692 10695 10693 10693 10691 10692 10693 10692 10694 10696 10697 10699 10700 10701 10704 10707 10710 10714 10716 10718 10719 10719 10720 10721 10723 10725 10726 10727 10729 10729 10730 10731 10731 10731 10731 10731 10731 10731 10730 10729 10728 10727 10726 10726 10726 10725 10724 10724 10723 10722 10720 10718 10717 10714 10713 10711 10709 10708 10706 10704 10702
10481 10484 10490 10499 10507 10514 10523 10535 10545 10552 10555 10561 10571 10577 10582 10591 10598 10604 10611 10612 10624 10646 10649 10647 10669 10687 10686 10687 10688 10685 10687 10690 10687 10685 10687 10689 10688 10688 10691 10694 10697 10701 10706 10708 10710 10711 10712 10713 10715 10716 10718 10719 10719 10720 10720 10721 10721 10721 10721 10722 10722 10722 10721 10720 10718 10717 10716 10716 10715 10715 10715 10714 10713 10712 10711 10710 10709 10707 10705 10703 10701 10699 10697 10695 10693 10691
10472 10473 10481 10492 10502 10514 10526 10538 10550 10556 10555 10557 10567 10575 10582 10589 10593 10598 10599 10603 10624 10640 10634 10640 10663 10673 10673 10677 10678 10675 10680 10686 10680 10673 10677 10679 10674 10676 10682 10685 10689 10694 10698 10700 10701 10702 10705 10707 10709 10711 10711 10712 10712 10712 10712 10712 10712 10713 10713 10713 10712 10711 10710 10708 10707 10706 10706 10705 10705 10705 10704 10704 10703 10702 10701 10700 10698 10697 10695 10693 10691 10689 10686 10684 10682 10680
10463 10464 10473 10483 10495 10507 10513 10520 10531 10537 10538 10545 10556 10563 10569 10575 10579 10582 10588 10605 10621 10620 10619 10639 10656 10660 10665 10669 10666 10666 10673 10676 10667 10659 10664 10667 10662 10668 10675 10676 10682 10687 10689 10690 10691 10694 10698 10700 10702 10703 10703 10704 10704 10704 10705 10705 10705 10705 10704 10703 10701 10700 10699 10698 10697 10695 10695 10694 10694 10694 10694 10693 10693 10692 10690 10689 10688 10686 10684 10682 10680 10678 10676 10674 10672 10669
10454 10458 10468 10475 10485 10494 10497 10504 10515 10523 10528 10534 10537 10543 10550 10556 10561 10568 10580 10596 10601 10595 10608 10631 10633 10636 10652 10653 10649 10655 10660 10659 10654 10651 10657 10660 10659 10665 10667 10668 10676 10679 10678 10680 10683 10687 10692 10693 10694 10694 10694 10695 10696 10697 10698 10697 10696 10695 10693 10692 10691 10690 10689 10688 10687 10686 10684 10684 10684 10683 10683 10682 10682 10681 10679 10678 10676 10674 10672 10670 10668 10667 10665 10663 10661 10659
10446 10453 10461 10465 10472 10480 10484 10493 10505 10513 10520 10523 10524 10531 10539 10543 10549 10558 10567 10577 10578 10576 10593 10611 10610 10621 10643 10642 10637 10645 10649 10650 10651 10650 10655 10660 10658 10656 10655 10660 10667 10668 10666 10671 10676 10681 10683 10684 10685 10686 10686 10688 10689 10689 10689 10687 10685 10684 10682 10681 10680 10679 10679 10678 10678 10677 10675 10675 10674 10672 10672 10671 10671 10670 10668 10667 10665 10663 10661 10659 10657 10655 10653 10651 10649 10647
10439 10446 10452 10458 10463 10465 10471 10484 10494 10500 10508 10514 10517 10523 10529 10534 10541 10550 10559 10567 10569 10574 10594 10608 10610 10626 10643 10637 10632 10638 10641 10646 10649 10647 10651 10658 10652 10644 10643 10648 10652 10653 10658 10664 10669 10673 10674 10674 10676 10677 10678 10680 10680 10680 10678 10676 10674 10673 10671 10671 10670 10669 10669 10668 10668 10667 10666 10665 10663 10662 10661 10660 10660 10659 10658 10656 10654 10652 10650 10648 10646 10644 10642 10640 10638 10635
10432 10437 10445 10451 10451 10454 10464 10476 10484 10492 10499 10500 10503 10510 10517 10526 10537 10548 10560 10567 10570 10580 10596 10600 10605 10624 10635 10626 10623 10628 10629 10634 10640 10638 10640 10645 10641 10633 10631 10633 10637 10644 10653 10659 10663 10667 10667 10667 10668 10669 10670 10671 10670 10668 10666 10664 10662 10661 10660 10660 10660 10659 10659 10657 10656 10655 10654 10653 10652 10651 10650 10649 10648 10647 10646 10645 10643 10640 10639 10636 10635 10633 10631 10629 10626 10623
10424 10429 10437 10442 10444 10452 10461 10467 10477 10484 10480 10478 10493 10510 10520 10529 10540 10548 10556 10562 10566 10574 10581 10585 10599 10617 10615 10606 10609 10613 10614 10620 10626 10626 10627 10633 10634 10628 10622 10623 10631 10640 10647 10653 10658 10661 10660 10660 10660 10660 10661 10660 10658 10656 10654 10652 10651 10650 10650 10649 10649 10649 10648 10646 10644 10643 10642 10641 10640 10640 10639 10638 10637 10635 10634 10633 10631 10629 10627 10625 10624 10622 10619 10617 10614 10611
10415 10421 10430 10435 10440 10447 10452 10458 10464 10461 10458 10475 10503 10517 10519 10525 10532 10537 10544 10551 10553 10556 10561 10572 10590 10598 10594 10595 10601 10601 10605 10613 10615 10616 10621 10627 10629 10624 10617 10619 10628 10636 10641 10647 10652 10653 10651 10651 10652 10651 10650 10648 10646 10645 10644 10642 10641 10640 10640 10640 10639 10638 10636 10634 10633 10631 10630 10630 10628 10628 10627 10626 10625 10623 10621 10621 10619 10617 10616 10614 10612 10610 10608 10605 10603 10599
10407 10414 10421 10427 10432 10437 10442 10446 10443 10442 10459 10487 10503 10503 10503 10509 10513 10516 10524 10530 10532 10538 10549 10565 10582 10586 10583 10590 10593 10590 10595 10602 10604 10608 10614 10618 10622 10619 10613 10617 10624 10629 10633 10638 10642 10642 10641 10641 10641 10639 10638 10637 10637 10637 10635 10634 10633 10632 10631 10630 10628 10627 10625 10623 10622 10620 10619 10618 10617 10617 10615 10614 10612 10611 10609 10608 10607 10605 10603 10602 10600 10598 10596 10593 10590 10586
10400 10406 10413 10419 10423 10427 10430 10429 10429 10441 10463 10478 10482 10485 10489 10494 10499 10505 10516 10526 10534 10543 10552 10563 10575 10574 10571 10580 10586 10582 10583 10588 10593 10602 10607 10609 10614 10613 10608 10611 10616 10618 10622 10627 10629 10629 10629 10630 10630 10628 10628 10628 10628 10628 10627 10626 10625 10623 10622 10620 10618 10616 10615 10613 10612 10610 10608 10607 10606 10605 10603 10602 10600 10598 10597 10596 10594 10593 10591 10588 10586 10584 10582 10580 10576 10572
10391 10398 10405 10410 10414 10417 10419 10421 10429 10440 10451 10460 10470 10478 10483 10492 10502 10507 10513 10525 10532 10531 10533 10542 10553 10555 10558 10570 10574 10568 10568 10575 10585 10596 10599 10600 10606 10604 10598 10602 10607 10608 10613 10615 10616 10618 10620 10621 10620 10618 10618 10619 10618 10618 10618 10617 10616 10615 10613 10611 10609 10606 10605 10604 10602 10600 10598 10596 10594 10593 10591 10589 10587 10585 10584 10583 10581 10580 10577 10575 10572 10570 10567 10564 10561 10556
10383 10390 10397 10401 10406 10410 10412 10416 10422 10426 10439 10457 10469 10476 10483 10493 10498 10493 10493 10504 10512 10512 10517 10529 10540 10545 10551 10557 10557 10556 10561 10568 10580 10591 10592 10591 10595 10591 10585 10592 10599 10600 10602 10604 10606 10610 10611 10609 10607 10607 10608 10609 10608 10608 10608 10608 10607 10605 10603 10602 10600 10597 10595 10593 10591 10589 10587 10584 10583 10581 10579 10577 10574 10572 10571 10570 10568 10566 10563 10560 10558 10555 10552 10548 10545 10540
10374 10382 10388 10391 10395 10399 10402 10407 10411 10419 10440 10459 10466 10471 10476 10478 10482 10478 10474 10488 10508 10515 10516 10525 10536 10543 10546 10547 10547 10549 10552 10562 10580 10589 10582 10576 10577 10572 10573 10584 10590 10590 10593 10597 10599 10602 10600 10596 10597 10598 10599 10599 10599 10599 10599 10598 10597 10596 10594 10593 10591 10588 10586 10583 10580 10577 10574 10572 10571 10569 10568 10565 10562 10560 10558 10556 10554 10551 10549 10546 10543 10540 10536 10533 10529 10525
10366 10372 10377 10379 10384 10389 10392 10397 10403 10416 10437 10450 10454 10459 10461 10463 10466 10460 10457 10484 10513 10513 10506 10514 10527 10533 10533 10531 10532 10536 10545 10561 10575 10575 10562 10555 10555 10558 10565 10575 10578 10579 10585 10588 10590 10590 10588 10587 10589 10590 10590 10590 10590 10589 10589 10588 10587 10586 10585 10584 10581 10579 10576 10573 10569 10564 10561 10559 10558 10557 10556 10553 10551 10548 10546 10543 10541 10538 10535 10532 10529 10526 10522 10518 10514 10509
10356 10362 10366 10370 10376 10381 10384 10389 10397 10412 10429 10439 10442 10448 10451 10450 10447 10445 10462 10497 10511 10499 10495 10506 10515 10518 10518 10517 10521 10531 10543 10552 10554 10551 10546 10541 10543 10550 10559 10563 10565 10571 10576 10578 10580 10580 10579 10579 10582 10582 10581 10581 10580 10579 10579 10578 10578 10578 10576 10574 10571 10569 10566 10562 10558 10553 10549 10547 10546 10545 10544 10542 10539 10537 10534 10531 10528 10525 10522 10519 10516 10512 10508 10503 10499 10495
10346 10352 10358 10363 10369 10374 10379 10385 10393 10407 10424 10432 10434 10437 10440 10440 10442 10456 10481 10497 10493 10488 10493 10498 10502 10506 10506 10507 10514 10526 10532 10531 10532 10537 10539 10534 10535 10543 10548 10551 10556 10562 10566 10569 10571 10570 10570 10572 10573 10573 10573 10572 10571 10570 10570 10569 10569 10568 10565 10563 10560 10558 10555 10551 10547 10543 10539 10536 10534 10532 10531 10529 10527 10525 10522 10519 10515 10512 10508 10505 10502 10498 10494 10490 10486 10483
10337 10342 10348 10355 10361 10366 10370 10373 10384 10406 10425 10428 10427 10431 10439 10446 10456 10470 10479 10479 10479 10485 10488 10485 10489 10494 10495 10498 10507 10514 10515 10514 10518 10527 10530 10526 10527 10533 10538 10543 10547 10551 10555 10560 10561 10560 10561 10563 10563 10564 10564 10563 10562 10561 10561 10560 10559 10556 10553 10551 10549 10546 10543 10540 10537 10533 10530 10527 10524 10521 10519 10517 10514 10512 10509 10506 10503 10499 10496 10492 10488 10485 10481 10478 10474 10471
10325 10333 10341 10350 10355 10358 10362 10370 10388 10411 10421 10419 10421 10430 10439 10444 10451 10458 10461 10464 10469 10474 10475 10477 10481 10482 10484 10490 10495 10497 10500 10502 10506 10513 10517 10517 10519 10523 10528 10533 10536 10539 10544 10548 10549 10551 10553 10554 10555 10555 10554 10553 10552 10551 10551 10550 10548 10544 10541 10540 10538 10535 10532 10528 10525 10522 10519 10516 10513 10511 10508 10505 10502 10499 10496 10493 10491 10487 10484 10481 10477 10474 10471 10467 10464 10461
10321 10331 10337 10344 10348 10352 10360 10373 10387 10400 10406 10408 10415 10422 10425 10429 10436 10443 10449 10456 10459 10462 10467 10472 10473 10471 10473 10478 10482 10486 10491 10494 10497 10501 10504 10506 10510 10514 10518 10521 10523 10528 10533 10536 10539 10543 10545 10545 10545 10543 10542 10542 10540 10539 10539 10538 10536 10534 10531 10529 10528 10525 10521 10518 10514 10511 10508 10504 10502 10499 10496 10493 10490 10487 10484 10482 10479 10476 10473 10470 10467 10464 10461 10458 10455 10452
10318 10322 10325 10332 10338 10342 10352 10365 10376 10387 10397 10403 10407 10409 10413 10423 10431 10435 10441 10448 10452 10454 10458 10463 10465 10464 10462 10466 10473 10478 10480 10483 10488 10491 10492 10495 10499 10503 10507 10510 10513 10518 10523 10527 10531 10533 10533 10533 10532 10531 10531 10531 10529 10527 10526 10524 10524 10523 10520 10519 10519 10516 10512 10509 10506 10502 10497 10494 10490 10487 10485 10482 10479 10476 10474 10471 10469 10466 10463 10461 10458 10455 10452 10449 10447 10444
10306 10308 10314 10323 10329 10334 10347 10363 10374 10383 10391 10396 10399 10404 10410 10419 10427 10431 10435 10440 10444 10445 10448 10453 10456 10455 10452 10457 10464 10467 10469 10474 10478 10481 10484 10486 10488 10492 10495 10499 10504 10509 10514 10517 10520 10519 10519 10520 10520 10520 10521 10519 10517 10515 10514 10512 10512 10511 10509 10508 10508 10506 10504 10501 10497 10492 10487 10484 10481 10478 10475 10472 10469 10467 10465 10462 10460 10458 10455 10452 10450 10447 10444 10442 10439 10436
10295 10299 10306 10315 10323 10332 10347 10361 10366 10370 10380 10388 10394 10401 10405 10411 10419 10424 10425 10429 10433 10435 10439 10442 10444 10445 10446 10449 10453 10456 10460 10464 10467 10471 10476 10477 10479 10482 10484 10487 10492 10498 10501 10504 10505 10504 10505 10507 10508 10508 10507 10505 10503 10502 10501 10501 10502 10501 10498 10497 10495 10494 10493 10489 10485 10482 10478 10475 10472 10469 10466 10464 10461 10459 10457 10454 10452 10450 10447 10445 10442 10439 10436 10434 10431 10428
10284 10288 10297 10307 10316 10326 10341 10353 10356 10362 10376 10386 10390 10395 10398 10401 10408 10413 10415 10419 10424 10427 10430 10433 10434 10436 10438 10440 10443 10447 10451 10455 10459 10463 10466 10468 10471 10473 10474 10477 10481 10483 10485 10488 10489 10490 10492 10493 10494 10494 10492 10490 10489 10488 10489 10490 10490 10489 10487 10484 10481 10481 10479 10476 10475 10473 10470 10467 10464 10461 10459 10456 10454 10452 10450 10447 10445 10442 10439 10437 10434 10431 10428 10426 10423 10420
10273 10284 10296 10303 10310 10323 10339 10349 10350 10356 10370 10378 10379 10383 10389 10391 10396 10403 10407 10410 10413 10417 10422 10423 10423 10424 10429 10434 10437 10439 10442 10447 10452 10455 10457 10459 10461 10462 10465 10468 10470 10470 10471 10473 10475 10476 10477 10478 10479 10479 10477 10476 10475 10476 10477 10478 10477 10476 10474 10471 10469 10468 10466 10464 10463 10462 10460 10459 10456 10453 10451 10449 10447 10445 10443 10440 10438 10435 10432 10429 10426 10423 10420 10417 10414 10411
10272 10287 10295 10299 10310 10323 10333 10338 10339 10344 10355 10363 10365 10370 10377 10382 10386 10393 10398 10401 10404 10409 10412 10412 10411 10415 10422 10427 10431 10432 10434 10437 10441 10444 10447 10450 10452 10455 10457 10458 10458 10460 10461 10462 10463 10464 10464 10464 10465 10465 10463 10463 10464 10464 10465 10465 10464 10464 10462 10460 10458 10457 10455 10454 10452 10450 10449 10448 10447 10445 10444 10441 10439 10437 10434 10431 10429 10426 10423 10420 10417 10414 10411 10408 10405 10401